Location: Al Mulaqqa?ah
(24.1833°N, 32.8833°E)
Time: 14:33:39
(UTC+00:00)

KORONAS-FOTON - Pass Details

Date: 26 September 2021
Orbit: 504 x 531 km, 82.4° (Epoch: 19 October)

Event Time Altitude Azimuth Distance (km) Brightness Sun altitude
Rises 16:39:55 0° 4° (N) 2,602 7.4 -14.4°
Reaches altitude 10° 16:42:07 10° 12° (NNE) 1,717 6.4 -14.9°
Maximum altitude 16:45:40 40° 83° (E) 756 4.1 -15.7°
Enters shadow 16:47:31 23° 139° (SE) 1,101 5.0 -16.1°
